Time,TemperatureF,DewpointF,PressureIn,WindDirection,WindDirectionDegrees,WindSpeedMPH,WindSpeedGustMPH,Humidity,HourlyPrecipIn,Conditions,Clouds,dailyrainin,SoftwareType,DateUTC
2014-09-16 00:09:00,57.0,56.2,29.98,WNW,292,2.2,-999.0,97,-99.99,,,0.00,Acu-Link.com,2014-09-16 04:09:00,
2014-09-16 00:24:00,57.0,56.2,29.98,NW,315,1.7,-999.0,97,-99.99,,,0.01,Acu-Link.com,2014-09-16 04:24:00,
2014-09-16 00:39:00,56.8,56.0,29.98,WSW,247,1.1,-999.0,97,-99.99,,,0.04,Acu-Link.com,2014-09-16 04:39:00,
2014-09-16 00:54:00,56.8,56.0,29.98,WNW,292,2.7,-999.0,97,-99.99,,,0.06,Acu-Link.com,2014-09-16 04:54:00,
2014-09-16 01:09:00,56.8,56.0,29.97,NW,315,1.7,-999.0,97,-99.99,,,0.07,Acu-Link.com,2014-09-16 05:09:00,
2014-09-16 01:24:00,57.0,56.2,29.97,NNE,22,0.0,-999.0,97,-99.99,,,0.10,Acu-Link.com,2014-09-16 05:24:00,
2014-09-16 01:39:00,57.0,56.2,29.97,NW,315,4.7,-999.0,97,-99.99,,,0.10,Acu-Link.com,2014-09-16 05:39:00,
2014-09-16 01:54:00,56.7,55.9,29.97,NW,315,4.2,-999.0,97,-99.99,,,0.11,Acu-Link.com,2014-09-16 05:54:00,
2014-09-16 02:10:00,56.3,55.5,29.97,NW,315,2.2,-999.0,97,-99.99,,,0.12,Acu-Link.com,2014-09-16 06:10:00,
2014-09-16 02:25:00,56.3,55.5,29.97,WNW,292,2.7,-999.0,97,-99.99,,,0.12,Acu-Link.com,2014-09-16 06:25:00,
2014-09-16 02:40:00,56.3,55.5,29.97,NW,315,1.1,-999.0,97,-99.99,,,0.12,Acu-Link.com,2014-09-16 06:40:00,
2014-09-16 02:56:00,56.3,55.5,29.96,North,0,0.0,-999.0,97,-99.99,,,0.13,Acu-Link.com,2014-09-16 06:56:00,
2014-09-16 03:11:00,56.3,55.5,29.97,West,270,2.2,-999.0,97,-99.99,,,0.13,Acu-Link.com,2014-09-16 07:11:00,
2014-09-16 03:26:00,56.3,55.5,29.97,NW,315,1.7,-999.0,97,-99.99,,,0.14,Acu-Link.com,2014-09-16 07:26:00,
2014-09-16 03:42:00,56.3,55.5,29.96,NW,315,0.0,-999.0,97,-99.99,,,0.14,Acu-Link.com,2014-09-16 07:42:00,
2014-09-16 03:57:00,56.3,55.5,29.96,North,0,0.0,-999.0,97,-99.99,,,0.14,Acu-Link.com,2014-09-16 07:57:00,
2014-09-16 04:12:00,56.3,55.5,29.96,North,0,0.0,-999.0,97,-99.99,,,0.14,Acu-Link.com,2014-09-16 08:12:00,
2014-09-16 04:27:00,56.3,55.5,29.96,NNW,337,2.2,-999.0,97,-99.99,,,0.14,Acu-Link.com,2014-09-16 08:27:00,
2014-09-16 04:43:00,56.1,55.3,29.96,NE,45,2.2,-999.0,97,-99.99,,,0.14,Acu-Link.com,2014-09-16 08:43:00,
2014-09-16 04:58:00,56.1,55.3,29.97,NNW,337,1.7,-999.0,97,-99.99,,,0.14,Acu-Link.com,2014-09-16 08:58:00,
2014-09-16 05:13:00,55.9,55.1,29.96,NNE,22,2.7,-999.0,97,-99.99,,,0.14,Acu-Link.com,2014-09-16 09:13:00,
2014-09-16 05:29:00,55.4,54.6,29.97,West,270,0.0,-999.0,97,-99.99,,,0.14,Acu-Link.com,2014-09-16 09:29:00,
2014-09-16 05:44:00,55.2,54.4,29.97,NNW,337,2.2,-999.0,97,-99.99,,,0.14,Acu-Link.com,2014-09-16 09:44:00,
2014-09-16 05:59:00,55.0,54.2,29.98,West,270,3.2,-999.0,97,-99.99,,,0.14,Acu-Link.com,2014-09-16 09:59:00,
2014-09-16 06:15:00,54.7,53.9,29.99,NW,315,1.7,-999.0,97,-99.99,,,0.14,Acu-Link.com,2014-09-16 10:15:00,
2014-09-16 06:30:00,54.5,53.7,29.99,East,90,1.7,-999.0,97,-99.99,,,0.14,Acu-Link.com,2014-09-16 10:30:00,
2014-09-16 06:45:00,54.3,53.5,30.00,NNW,337,1.7,-999.0,97,-99.99,,,0.14,Acu-Link.com,2014-09-16 10:45:00,
2014-09-16 07:00:00,54.1,53.3,30.01,NW,315,3.2,-999.0,97,-99.99,,,0.14,Acu-Link.com,2014-09-16 11:00:00,
2014-09-16 07:16:00,53.4,52.6,30.01,West,270,1.7,-999.0,97,-99.99,,,0.14,Acu-Link.com,2014-09-16 11:16:00,
2014-09-16 07:31:00,52.7,51.6,30.02,WNW,292,2.7,-999.0,96,-99.99,,,0.14,Acu-Link.com,2014-09-16 11:31:00,
2014-09-16 07:46:00,52.5,51.4,30.02,NNE,22,2.7,-999.0,96,-99.99,,,0.14,Acu-Link.com,2014-09-16 11:46:00,
2014-09-16 08:02:00,52.5,51.4,30.03,NNW,337,1.7,-999.0,96,-99.99,,,0.14,Acu-Link.com,2014-09-16 12:02:00,
2014-09-16 08:17:00,53.6,51.9,30.03,NNW,337,4.2,-999.0,94,-99.99,,,0.14,Acu-Link.com,2014-09-16 12:17:00,
2014-09-16 08:32:00,53.4,51.1,30.03,ENE,67,3.7,-999.0,92,-99.99,,,0.14,Acu-Link.com,2014-09-16 12:32:00,
2014-09-16 08:47:00,54.3,52.0,30.04,NNE,22,1.1,-999.0,92,-99.99,,,0.14,Acu-Link.com,2014-09-16 12:47:00,
2014-09-16 09:02:00,55.4,52.5,30.04,NNE,22,2.2,-999.0,90,-99.99,,,0.14,Acu-Link.com,2014-09-16 13:02:00,
2014-09-16 09:18:00,55.2,52.3,30.04,NW,315,2.7,-999.0,90,-99.99,,,0.14,Acu-Link.com,2014-09-16 13:18:00,
2014-09-16 09:33:00,55.6,52.4,30.04,WSW,247,2.2,-999.0,89,-99.99,,,0.14,Acu-Link.com,2014-09-16 13:33:00,
2014-09-16 09:48:00,55.4,52.2,30.04,NW,315,2.7,-999.0,89,-99.99,,,0.14,Acu-Link.com,2014-09-16 13:48:00,
2014-09-16 10:03:00,55.4,52.5,30.05,North,0,3.2,-999.0,90,-99.99,,,0.14,Acu-Link.com,2014-09-16 14:03:00,
2014-09-16 10:18:00,55.8,52.6,30.04,WNW,292,2.7,-999.0,89,-99.99,,,0.14,Acu-Link.com,2014-09-16 14:18:00,
2014-09-16 10:34:00,55.6,52.4,30.05,NNE,22,3.7,-999.0,89,-99.99,,,0.14,Acu-Link.com,2014-09-16 14:34:00,
2014-09-16 10:49:00,57.4,53.2,30.04,SSW,202,1.7,-999.0,86,-99.99,,,0.14,Acu-Link.com,2014-09-16 14:49:00,
2014-09-16 11:04:00,57.6,53.1,30.03,NNE,22,1.7,-999.0,85,-99.99,,,0.14,Acu-Link.com,2014-09-16 15:04:00,
2014-09-16 11:19:00,58.5,53.7,30.02,WNW,292,1.7,-999.0,84,-99.99,,,0.14,Acu-Link.com,2014-09-16 15:19:00,
2014-09-16 11:34:00,58.8,53.6,30.02,ENE,67,0.0,-999.0,83,-99.99,,,0.14,Acu-Link.com,2014-09-16 15:34:00,
2014-09-16 11:50:00,59.0,53.2,30.02,NNW,337,2.7,-999.0,81,-99.99,,,0.14,Acu-Link.com,2014-09-16 15:50:00,
2014-09-16 12:05:00,59.5,54.3,30.02,East,90,0.0,-999.0,83,-99.99,,,0.14,Acu-Link.com,2014-09-16 16:05:00,
2014-09-16 12:20:00,59.5,54.3,30.02,NW,315,3.2,-999.0,83,-99.99,,,0.14,Acu-Link.com,2014-09-16 16:20:00,
2014-09-16 12:36:00,59.9,55.1,30.02,WNW,292,1.7,-999.0,84,-99.99,,,0.14,Acu-Link.com,2014-09-16 16:36:00,
2014-09-16 12:51:00,61.5,55.6,30.01,NW,315,2.7,-999.0,81,-99.99,,,0.14,Acu-Link.com,2014-09-16 16:51:00,
2014-09-16 13:06:00,61.0,55.8,30.01,WNW,292,6.3,-999.0,83,-99.99,,,0.14,Acu-Link.com,2014-09-16 17:06:00,
2014-09-16 13:22:00,61.0,55.8,30.01,WNW,292,3.7,-999.0,83,-99.99,,,0.14,Acu-Link.com,2014-09-16 17:22:00,
2014-09-16 13:37:00,60.8,55.6,30.01,NNW,337,2.7,-999.0,83,-99.99,,,0.14,Acu-Link.com,2014-09-16 17:37:00,
2014-09-16 13:52:00,61.0,55.5,30.01,WNW,292,1.1,-999.0,82,-99.99,,,0.14,Acu-Link.com,2014-09-16 17:52:00,
2014-09-16 14:07:00,62.1,56.2,30.00,WNW,292,3.2,-999.0,81,-99.99,,,0.14,Acu-Link.com,2014-09-16 18:07:00,
2014-09-16 14:22:00,61.9,55.7,30.00,NE,45,2.2,-999.0,80,-99.99,,,0.14,Acu-Link.com,2014-09-16 18:22:00,
2014-09-16 14:37:00,62.8,55.8,29.99,NW,315,2.2,-999.0,78,-99.99,,,0.14,Acu-Link.com,2014-09-16 18:37:00,
2014-09-16 14:53:00,62.2,55.6,29.99,NNW,337,3.7,-999.0,79,-99.99,,,0.14,Acu-Link.com,2014-09-16 18:53:00,
2014-09-16 15:08:00,61.9,55.3,29.99,NNW,337,3.2,-999.0,79,-99.99,,,0.14,Acu-Link.com,2014-09-16 19:08:00,
2014-09-16 15:23:00,61.5,55.3,29.99,NNW,337,3.2,-999.0,80,-99.99,,,0.14,Acu-Link.com,2014-09-16 19:23:00,
2014-09-16 15:39:00,60.8,54.6,29.99,NW,315,4.2,-999.0,80,-99.99,,,0.14,Acu-Link.com,2014-09-16 19:39:00,
2014-09-16 15:54:00,60.8,54.6,29.99,WNW,292,3.7,-999.0,80,-99.99,,,0.14,Acu-Link.com,2014-09-16 19:54:00,
2014-09-16 16:09:00,62.1,55.2,29.99,WNW,292,3.2,-999.0,78,-99.99,,,0.14,Acu-Link.com,2014-09-16 20:09:00,
2014-09-16 16:24:00,62.1,55.2,29.98,NNE,22,3.2,-999.0,78,-99.99,,,0.14,Acu-Link.com,2014-09-16 20:24:00,
2014-09-16 16:40:00,62.4,54.7,29.98,NNE,22,1.7,-999.0,76,-99.99,,,0.14,Acu-Link.com,2014-09-16 20:40:00,
2014-09-16 16:55:00,62.1,54.8,29.98,WNW,292,1.7,-999.0,77,-99.99,,,0.14,Acu-Link.com,2014-09-16 20:55:00,
2014-09-16 17:10:00,61.7,55.1,29.98,North,0,1.1,-999.0,79,-99.99,,,0.14,Acu-Link.com,2014-09-16 21:10:00,
2014-09-16 17:25:00,61.3,54.7,29.98,West,270,1.1,-999.0,79,-99.99,,,0.14,Acu-Link.com,2014-09-16 21:25:00,
2014-09-16 17:41:00,61.3,53.3,29.98,NNW,337,0.0,-999.0,75,-99.99,,,0.14,Acu-Link.com,2014-09-16 21:41:00,
2014-09-16 17:56:00,61.7,53.7,29.98,SSE,157,1.1,-999.0,75,-99.99,,,0.14,Acu-Link.com,2014-09-16 21:56:00,